Flag for United Kingdom

Past Weather in Wellingborough, England, United Kingdom — Yesterday and Last 2 Weeks

Now
52 °F

Cool.


Feels Like: 45 °F
Forecast: 62 / 43 °F
Wind: 24 mph from North

Location: Bedford
Current Time: Sep 27, 2020 at 11:11:09 am
Latest Report: Sep 27, 2020 at 10:00 am
Visibility: 28 mi
Pressure29.91 "Hg
Humidity: 73%
Dew Point: 44 °F
Location of WellingboroughLocation

Past Weather in Wellingborough — Graph

°F

Wellingborough Temperature Yesterday

Maximum temperature yesterday: 53 °F (at 3:00 pm)
Minimum temperature yesterday: 42 °F (at 7:00 am)
Average temperature yesterday: 48 °F

High & Low Weather Summary for the Past Weeks

 TemperatureHumidityPressure
High82 °F (Sep 15, 3:00 pm)99% (Sep 14, 7:00 am)30.45 "Hg (Sep 14, 7:00 am)
Low42 °F (Sep 26, 7:00 am)38% (Sep 14, 4:00 pm)29.32 "Hg (Sep 24, 4:00 pm)
Average59 °F76%29.99 "Hg
* Reported Sep 12 10:00 am — Sep 27 10:00 am, Wellingborough. Weather by CustomWeather, © 2020

Note: Actual official high and low records may vary slightly from our data, if they occured in-between our weather recording intervals... More about our weather records

Wellingborough Weather History for the Previous 24 Hours

Scroll right to see more
 ConditionsComfort  
Time TempWeatherWind HumidityBarometerVisibility
10:00 am
Sun, Sep 27
52 °FCool.24 mph73%29.91 "Hg28 mi
9:00 am51 °FCool.23 mph74%29.91 "Hg25 mi
8:00 am49 °FCool.20 mph76%29.91 "Hg28 mi
7:00 am50 °FCool.21 mph74%29.89 "Hg25 mi
6:00 am49 °FCool.21 mph75%29.89 "Hg25 mi
5:00 am50 °FCool.18 mph74%29.90 "Hg17 mi
4:00 am50 °FCool.23 mph72%29.90 "Hg19 mi
3:00 am50 °FCool.20 mph74%29.90 "Hg18 mi
2:00 am49 °FCool.20 mph77%29.91 "Hg14 mi
1:00 am50 °FCool.20 mph76%29.91 "Hg22 mi
12:00 am50 °FCool.18 mph74%29.93 "Hg16 mi
11:00 pm
Sat, Sep 26
50 °FCool.21 mph78%29.93 "Hg22 mi
10:00 pm50 °FCool.21 mph76%29.93 "Hg17 mi
9:00 pm51 °FCool.18 mph75%29.92 "Hg22 mi
8:00 pm51 °FCool.20 mph77%29.92 "Hg19 mi
7:00 pm51 °FCool.16 mph80%29.91 "Hg13 mi
6:00 pm50 °FRain showers. Cloudy.17 mph90%29.89 "Hg10 mi
5:00 pm51 °FCool.22 mph78%29.88 "Hg19 mi
4:00 pm51 °FRain showers. Cloudy.18 mph80%29.88 "Hg14 mi
3:00 pm53 °FCool.23 mph64%29.86 "Hg31 mi
2:00 pm52 °FCool.18 mph64%29.86 "Hg31 mi
1:00 pm50 °FLots of rain. Cloudy.21 mph73%29.86 "Hg31 mi
12:00 pm51 °FRain showers. Cloudy.21 mph65%29.86 "Hg19 mi
11:00 am50 °FCool.20 mph63%29.85 "Hg22 mi
Weather by CustomWeather, © 2020

See weather overview